Weather History for York, PA

Change the Weather History Date:

Monday, March 11, 2013

  Actual Average Record
Temperature  
Mean Temperature 48 °F -  
Max Temperature 59 °F 0 °F 72 °F (2009)
Min Temperature 39 °F - 12 °F (2003)
Degree Days  
Heating Degree Days 17    
Moisture  
Dew Point 39 °F    
Average Humidity 70    
Maximum Humidity 86    
Minimum Humidity 46    
Precipitation  
Precipitation 0.01 in - - ()
Sea Level Pressure  
Sea Level Pressure 30.11 in    
Wind  
Wind Speed 8 mph (SSE)    
Max Wind Speed 14 mph    
Max Gust Speed 24 mph    
Visibility 10 miles    
Events Rain    
Averages and records for this station are not official NWS values.
T = Trace of Precipitation, MM = Missing Value Source: NWS Daily Summary

Daily Weather History Graph

Daily Weather History Graph

Search for Another Location

Airport:

Trip Planner

Search our weather history database for the weather conditions in past years. The results will help you decide how hot, cold, wet, or windy it might be!

Date:

Astronomy

Mar. 11, 2013 Rise Set
Actual Time 7:24 AM EDT 7:10 PM EDT
Civil Twilight 6:58 AM EDT 7:37 PM EDT
Nautical Twilight 6:26 AM EDT 8:08 PM EDT
Astronomical Twilight 5:55 AM EDT 8:40 PM EDT
Moon 6:57 AM EDT (3/11) 7:20 PM EDT (3/11)
Length of Visible Light 12h 39m
Length of Day
11h 45m
Waning Crescent, 0% of the Moon is Illuminated
Mar 11
Waning Crescent
Mar 11
New
Mar 19
First Quarter
Mar 27
Full
Apr 3
Last Quarter

Hourly Weather History & Observations

Time (EDT) Temp. Windchill Dew Point Humidity Pressure Visibility Wind Dir Wind Speed Gust Speed Precip Events Conditions
12:53 AM 45.0 °F 41.2 °F 32.0 °F 60% 30.23 in 10.0 mi SSE 6.9 mph - N/A   Clear
1:53 AM 43.0 °F 36.4 °F 33.1 °F 68% 30.21 in 10.0 mi SSE 12.7 mph 18.4 mph N/A   Clear
2:53 AM 41.0 °F 33.9 °F 35.1 °F 79% 30.21 in 10.0 mi SSE 12.7 mph 23.0 mph N/A   Clear
3:53 AM 41.0 °F 39.0 °F 36.0 °F 82% 30.19 in 10.0 mi Variable 3.5 mph - N/A   Clear
4:53 AM 39.0 °F 33.4 °F 35.1 °F 86% 30.18 in 9.0 mi SSE 8.1 mph - N/A   Clear
5:53 AM 39.9 °F 33.4 °F 36.0 °F 86% 30.16 in 9.0 mi SSE 10.4 mph - N/A   Clear
6:53 AM 41.0 °F 35.8 °F 36.0 °F 82% 30.17 in 7.0 mi SSE 8.1 mph - N/A   Clear
7:53 AM 39.9 °F 35.8 °F 36.0 °F 86% 30.18 in 7.0 mi SE 5.8 mph - N/A   Clear
8:53 AM 43.0 °F 38.8 °F 37.9 °F 82% 30.17 in 9.0 mi SE 6.9 mph - N/A   Scattered Clouds
9:07 AM 44.6 °F 42.2 °F 39.2 °F 81% 30.17 in 9.0 mi Variable 4.6 mph - N/A   Mostly Cloudy
9:30 AM 44.6 °F 42.2 °F 37.4 °F 76% 30.17 in 8.0 mi South 4.6 mph - N/A   Scattered Clouds
9:53 AM 45.0 °F 40.6 °F 39.0 °F 80% 30.17 in 9.0 mi SSE 8.1 mph - N/A   Clear
10:53 AM 46.9 °F - 39.0 °F 74% 30.16 in 10.0 mi SE 9.2 mph - N/A   Clear
11:53 AM 50.0 °F - 37.0 °F 61% 30.15 in 10.0 mi SSE 4.6 mph - N/A   Clear
12:53 PM 54.0 °F - 34.0 °F 47% 30.12 in 10.0 mi Variable 6.9 mph - N/A   Clear
1:53 PM 57.0 °F - 37.0 °F 47% 30.10 in 10.0 mi South 9.2 mph - N/A   Clear
2:53 PM 57.9 °F - 37.0 °F 46% 30.06 in 10.0 mi South 6.9 mph - N/A   Clear
3:53 PM 57.9 °F - 41.0 °F 53% 30.04 in 10.0 mi SSE 10.4 mph 16.1 mph N/A   Clear
4:53 PM 55.9 °F - 43.0 °F 62% 30.02 in 10.0 mi SSE 8.1 mph 18.4 mph N/A   Clear
5:53 PM 55.0 °F - 44.1 °F 67% 30.01 in 10.0 mi SE 10.4 mph 17.3 mph N/A   Partly Cloudy
7:53 PM 54.0 °F - 45.0 °F 72% 29.99 in 10.0 mi SE 13.8 mph 19.6 mph N/A   Partly Cloudy
8:53 PM 55.0 °F - 45.0 °F 69% 30.01 in 10.0 mi SSE 8.1 mph 17.3 mph N/A   Mostly Cloudy
9:53 PM 55.0 °F - 45.0 °F 69% 30.00 in 10.0 mi Variable 5.8 mph 18.4 mph N/A   Overcast
10:53 PM 55.0 °F - 45.0 °F 69% 29.97 in 10.0 mi SSE 10.4 mph 18.4 mph 0.00 in   Overcast
11:53 PM 53.1 °F - 46.0 °F 77% 29.93 in 10.0 mi South 8.1 mph 24.2 mph 0.01 in Rain Light Rain